Location: Oberkirch
(48.5323°N, 8.0787°E)
Time: 17:36:56
(UTC+00:00)

Cosmos 2219 Rocket - Pass Details

Date: 08 November 2025
Orbit: 825 x 847 km, 71.0° (Epoch: 09 December)

Event Time Altitude Azimuth Distance (km) Brightness Sun altitude
Exits shadow 02:55:18 42° 65° (ENE) 1,185 3.2 -34.7°
Drops below altitude 10° 02:59:22 10° 36° (NE) 2,475 5.1 -34.1°
Sets 03:01:52 0° 32° (NNE) 3,417 5.9 -33.7°
